This demonstration page uses our WeatherBlox Daily Observations layout. Learn more.

38.80484, -77.04692

Hourly Observations for April 7, 2019

Temp ( °F °C ) Dew Point ( °F °C ) Humidity (%) Winds ( mph kmh ) Pressure ( in mb ) Visibility ( mi km ) Precip ( " mm )
12:52 am 00:52 Mostly Cloudy 55 12.8 49 9.4 80 80 S 3 6 30.26 1025 10 16.0934 0 0
1:52 am 01:52 Partly Cloudy 55 12.8 50 10 83 83 S 6 9 30.26 1025 10 16.0934 0 0
2:52 am 02:52 Partly Cloudy 55 12.8 49 9.4 80 80 Calm 30.23 1024 10 16.0934 0 0
3:52 am 03:52 Mostly Clear 54 12.2 49 9.4 83 83 Calm 30.23 1024 10 16.0934 0 0
4:52 am 04:52 Partly Cloudy 53 11.7 49 9.4 86 86 Calm 30.22 1023 10 16.0934 0 0
5:52 am 05:52 Partly Cloudy 52 11.1 47 8.3 83 83 Calm 30.24 1024 10 16.0934 0 0
6:52 am 06:52 Partly Cloudy 51 10.6 47 8.3 86 86 Calm 30.24 1024 10 16.0934 0 0
7:52 am 07:52 Mostly Cloudy 54 12.2 50 10 87 87 S 3 6 30.27 1025 10 16.0934 0 0
8:52 am 08:52 Mostly Cloudy 56 13.3 51 10.6 84 84 SSW 6 9 30.27 1025 10 16.0934 0 0
9:52 am 09:52 Mostly Cloudy 58 14.4 51 10.6 78 78 S 5 7 30.27 1025 10 16.0934 0 0
10:52 am 10:52 Mostly Cloudy 63 17.2 53 11.7 70 70 S 7 11 30.27 1025 10 16.0934 0 0
11:52 am 11:52 Mostly Cloudy 67 19.4 54 12.2 63 63 S 8 13 30.24 1024 10 16.0934 0 0
12:52 pm 12:52 Mostly Cloudy 71 21.7 48 8.9 44 44 S 13 20 30.2 1023 10 16.0934 0 0
1:52 pm 13:52 Mostly Cloudy 71 21.7 50 10 47 47 S 13 20 30.17 1022 10 16.0934 0 0
2:52 pm 14:52 Mostly Cloudy 73 22.8 51 10.6 46 46 S 15 24 30.14 1021 10 16.0934 0 0
3:52 pm 15:52 Mostly Cloudy 73 22.8 55 12.8 53 53 S 10 17 30.11 1020 10 16.0934 0 0
4:52 pm 16:52 Mostly Cloudy 71 21.7 53 11.7 53 53 S 10 17 30.09 1019 10 16.0934 0 0
5:52 pm 17:52 Mostly Cloudy 69 20.6 54 12.2 59 59 S 9 15 30.08 1019 10 16.0934 0 0
6:52 pm 18:52 Cloudy 70 21.1 53 11.7 55 55 S 16 26 30.06 1018 10 16.0934 0 0
7:52 pm 19:52 Cloudy 67 19.4 51 10.6 57 57 SSE 12 19 30.06 1018 10 16.0934 0 0
8:52 pm 20:52 Cloudy 66 18.9 51 10.6 59 59 SSE 12 19 30.07 1018 10 16.0934 0 0
9:52 pm 21:52 Cloudy 64 17.8 50 10 60 60 S 12 19 30.07 1018 10 16.0934 0 0
10:31 pm 22:31 Cloudy with Light Rain 62 16.7 51 10.6 67 67 S 9 15 30.05 1018 10 16.0934 0 0.0254
10:52 pm 22:52 Cloudy 61 16.1 51 10.6 70 70 S 9 15 30.03 1017 10 16.0934 0 0.0254
11:52 pm 23:52 Mostly Cloudy 61 16.1 50 10 67 67 S 9 15 30.02 1017 10 16.0934 0 0

Powered by AerisWeather